Probability
68 81 94 97 97 58 3 0 0 0 0 0 0 0 0 3 6 13 19 29 32 32 29 52 61 55 42 39 45 48 35 35 39 42 42 39 42 42 48 52 55 58 58 68 61 71 68 71 65
77 94 97 97 77 3 0 3 0 0 0 0 0 0 0 3 10 13 19 32 23 19 26 35 61 52 48 48 35 39 32 29 32 32 29 32 32 29 32 32 39 48 52 61 65 71 68 68 68
87 94 94 87 23 3 0 0 0 0 0 0 3 3 3 6 13 19 23 29 19 26 32 35 52 35 39 39 35 35 32 19 16 19 23 26 26 26 29 23 29 35 42 48 52 58 58 58 58
90 94 90 61 0 0 0 0 0 0 3 3 3 3 6 16 23 23 19 13 23 23 23 29 55 32 29 26 29 29 19 19 16 13 16 16 16 10 16 23 19 19 26 39 42 52 52 48 45
90 94 68 13 0 0 0 0 0 3 0 6 6 6 13 16 26 19 23 26 23 23 13 19 35 29 19 19 19 16 13 13 13 13 13 13 16 13 13 16 16 19 19 32 35 45 42 45 48
94 90 26 0 0 3 3 0 0 0 0 0 3 10 16 23 26 19 16 23 19 19 13 13 35 26 23 19 13 13 16 13 10 10 10 3 0 0 3 3 6 16 16 26 35 32 35 45 35
90 74 0 0 0 0 0 0 0 0 3 0 0 10 16 23 23 23 19 16 19 13 6 3 10 16 26 23 13 13 13 6 6 3 6 3 0 3 3 3 0 3 3 13 16 35 19 35 48
97 77 0 0 6 3 0 0 0 0 0 3 3 6 19 23 19 19 16 13 13 3 3 3 3 0 0 3 10 13 6 6 6 3 0 0 3 3 6 3 6 3 3 10 10 26 29 32 42
87 68 3 6 6 3 0 0 0 0 0 3 3 16 19 19 13 16 16 13 6 3 3 0 0 0 0 0 0 6 6 6 6 3 3 0 0 0 0 3 6 3 3 3 10 19 23 29 39
77 35 0 3 3 3 0 0 0 0 3 3 10 16 23 23 16 13 13 10 6 3 0 0 0 0 0 0 0 0 0 0 0 0 0 0 0 0 0 0 6 10 10 10 13 26 35 19 0
23 13 10 6 3 0 3 3 0 0 0 0 6 16 23 13 13 13 13 10 10 0 0 0 0 0 0 0 0 0 0 0 0 0 0 0 0 0 0 0 0 0 6 3 6 16 0 0 0
13 10 13 3 3 3 0 0 0 0 0 0 6 16 13 13 13 13 10 6 3 0 0 0 0 0 0 0 0 0 0 0 0 0 0 0 0 0 0 0 0 3 3 3 3 3 0 0 0
13 16 6 3 0 6 0 0 0 0 3 3 6 6 10 10 13 13 6 0 3 3 0 0 0 0 0 0 0 0 0 0 0 0 0 0 0 0 0 0 0 0 0 3 3 0 0 0 0
13 13 6 6 0 6 0 0 0 0 0 3 6 6 6 10 10 10 6 0 0 3 0 0 0 0 0 0 0 0 0 0 0 0 0 0 0 0 0 0 0 0 0 0 0 0 0 0 0
13 13 10 6 3 0 0 0 0 0 0 3 3 6 10 10 10 6 6 0 0 0 0 0 0 0 0 0 0 0 0 0 0 0 0 0 0 0 0 0 0 0 0 0 0 0 0 0 0
6 3 10 6 3 0 0 0 0 0 0 3 6 3 3 6 6 6 3 3 3 3 3 0 0 0 0 0 0 0 0 0 0 0 0 0 0 0 0 0 0 0 0 0 0 0 0 0 0
6 3 0 0 0 0 0 0 0 0 0 0 6 3 3 6 3 6 0 3 3 3 3 0 0 0 0 0 0 0 0 0 0 0 0 0 0 0 0 0 0 0 0 0 0 0 0 0 0
0 0 0 0 0 0 0 0 0 0 0 0 3 3 0 6 3 3 0 3 3 0 0 0 0 0 0 0 0 0 0 0 0 0 0 0 0 0 0 0 0 0 0 0 0 0 0 0 0
0 0 0 0 0 0 0 0 0 0 0 0 6 3 0 0 3 6 0 3 3 0 0 0 0 0 0 0 0 0 0 0 0 0 0 0 0 0 0 0 0 0 0 0 0 0 0 0 0
0 0 0 0 0 0 0 0 0 3 0 0 0 3 0 0 0 6 0 3 3 0 0 0 0 0 0 0 0 0 0 0 0 0 0 0 0 0 0 0 0 0 0 0 0 0 0 0 0
0 0 0 0 0 0 0 0 0 0 0 0 0 0 0 0 0 6 3 3 3 3 0 0 0 0 0 0 0 0 0 0 0 0 0 0 0 0 0 0 0 0 0 0 0 0 0 0 0
0 0 0 0 0 0 0 0 0 0 0 0 0 0 0 0 3 3 3 3 3 6 3 0 0 0 0 0 0 0 0 0 0 0 0 0 0 0 0 0 0 0 0 0 0 0 0 0 0
0 0 0 0 0 0 0 0 0 0 0 0 0 0 0 0 0 3 10 10 6 3 6 0 0 0 0 0 0 0 0 0 0 0 0 0 0 0 0 0 0 0 0 0 0 0 0 0 0
0 0 0 0 0 0 0 0 0 0 0 0 0 0 0 0 0 3 6 6 3 3 3 3 3 0 0 0 0 0 0 0 0 0 0 0 0 0 0 0 0 0 0 0 0 0 0 0 0
0 0 0 0 0 0 0 0 0 0 0 0 0 0 0 0 0 3 3 6 3 3 3 3 3 3 3 0 0 0 0 0 0 0 0 0 0 0 0 0 0 0 0 0 0 0 0 0 0
0 0 0 0 0 0 0 0 0 0 0 0 0 0 0 0 0 0 3 3 3 3 3 3 3 0 0 0 0 0 0 0 0 0 0 0 0 0 0 0 0 0 0 0 0 0 0 0 0
0 0 0 0 0 0 0 0 0 0 0 0 0 0 0 0 0 0 3 3 3 3 3 3 3 0 0 0 0 0 0 0 0 0 0 0 0 0 0 0 0 0 0 0 0 0 0 0 0
0 0 0 0 0 0 0 0 0 0 0 0 0 3 0 0 0 0 3 0 3 3 3 3 0 0 3 0 0 0 0 0 0 0 0 0 0 0 0 0 0 0 0 0 0 0 0 0 0
0 0 0 0 0 0 0 0 0 0 0 0 0 0 0 0 0 0 0 3 6 3 3 6 3 3 0 0 0 0 0 0 0 0 0 0 0 0 0 0 0 0 0 0 0 0 0 0 3
0 0 0 0 0 0 0 0 0 0 0 0 0 0 0 0 0 3 3 3 3 3 3 3 0 0 0 0 0 0 0 0 0 0 0 0 0 0 0 0 0 0 0 0 0 0 0 0 0
Height
5862 5863 5864 5865 5866 5866 5866 5866 5866 5866 5866 5867 5867 5867 5868 5869 5871 5873 5871 5870 5871 5872 5872 5872 5872 5872 5871 5871 5871 5871 5870 5870 5870 5869 5869 5868 5868 5868 5867 5867 5867 5867 5866 5866 5866 5867 5867 5867 5867
5861 5862 5864 5865 5865 5865 5866 5866 5866 5866 5867 5867 5867 5868 5868 5869 5870 5870 5869 5870 5871 5871 5871 5871 5871 5871 5870 5870 5870 5869 5869 5869 5868 5868 5868 5867 5867 5866 5866 5865 5865 5865 5864 5864 5864 5864 5864 5865 5865
5859 5861 5863 5864 5864 5865 5865 5865 5865 5866 5867 5867 5868 5868 5869 5869 5869 5869 5869 5870 5870 5870 5870 5870 5870 5870 5869 5869 5869 5868 5868 5868 5867 5867 5866 5866 5865 5864 5864 5863 5863 5862 5862 5862 5862 5862 5862 5862 5862
5858 5861 5862 5864 5863 5864 5864 5864 5864 5866 5866 5867 5868 5868 5868 5869 5869 5869 5869 5869 5870 5870 5869 5869 5869 5869 5869 5868 5868 5868 5867 5867 5866 5865 5865 5864 5863 5862 5862 5861 5860 5860 5859 5859 5859 5859 5859 5859 5859
5857 5859 5860 5861 5862 5863 5863 5864 5865 5866 5866 5866 5867 5868 5867 5867 5868 5868 5868 5869 5869 5869 5869 5868 5868 5868 5868 5868 5867 5867 5866 5866 5865 5864 5863 5862 5861 5861 5860 5859 5858 5857 5857 5856 5856 5856 5856 5856 5856
5855 5857 5858 5859 5860 5861 5862 5863 5864 5865 5865 5866 5867 5867 5867 5867 5868 5868 5868 5868 5868 5868 5868 5868 5868 5868 5867 5867 5867 5866 5865 5864 5864 5863 5862 5861 5860 5859 5858 5856 5855 5854 5853 5853 5852 5852 5852 5852 5853
5853 5855 5856 5858 5859 5860 5862 5862 5863 5864 5865 5866 5866 5867 5867 5867 5867 5867 5867 5867 5867 5868 5867 5867 5867 5867 5867 5866 5866 5865 5864 5863 5862 5861 5860 5859 5858 5857 5855 5854 5853 5851 5850 5850 5849 5849 5849 5849 5849
5850 5853 5854 5855 5857 5859 5860 5861 5862 5863 5864 5865 5866 5866 5866 5867 5867 5867 5867 5867 5867 5867 5867 5867 5867 5867 5866 5866 5865 5864 5863 5862 5861 5860 5859 5858 5856 5855 5853 5852 5850 5849 5848 5847 5846 5846 5845 5845 5846
5848 5852 5852 5853 5855 5857 5859 5860 5861 5862 5863 5864 5865 5865 5865 5866 5866 5866 5866 5866 5866 5866 5866 5866 5866 5866 5866 5865 5864 5863 5862 5861 5860 5859 5857 5856 5854 5853 5851 5850 5848 5846 5845 5844 5843 5842 5842 5842 5842
5846 5848 5850 5851 5854 5856 5858 5859 5860 5861 5862 5863 5864 5864 5864 5864 5865 5865 5865 5865 5865 5865 5865 5865 5865 5865 5865 5864 5863 5862 5861 5860 5859 5857 5856 5854 5853 5851 5849 5847 5845 5844 5842 5841 5839 5839 5838 5838 5838
5843 5845 5847 5850 5852 5855 5857 5858 5859 5860 5861 5862 5862 5863 5863 5863 5864 5864 5864 5864 5865 5864 5864 5864 5864 5864 5863 5863 5862 5861 5860 5859 5857 5856 5854 5852 5850 5849 5847 5845 5842 5840 5839 5837 5836 5835 5834 5834 5834
5841 5844 5846 5848 5851 5854 5856 5857 5858 5859 5860 5860 5861 5861 5862 5862 5862 5862 5863 5863 5863 5863 5863 5863 5863 5863 5862 5862 5861 5860 5859 5857 5856 5854 5853 5851 5849 5847 5844 5842 5840 5838 5836 5834 5832 5831 5830 5830 5830
5840 5843 5845 5848 5851 5853 5855 5856 5857 5858 5859 5859 5860 5860 5861 5861 5861 5861 5862 5862 5862 5862 5862 5862 5862 5862 5861 5860 5860 5859 5857 5856 5854 5852 5851 5849 5847 5844 5842 5839 5837 5834 5832 5830 5829 5827 5826 5826 5825
5838 5841 5844 5847 5850 5852 5853 5855 5856 5857 5858 5858 5859 5859 5860 5860 5860 5860 5861 5861 5861 5861 5861 5861 5861 5860 5860 5859 5858 5857 5856 5855 5853 5851 5849 5847 5845 5842 5839 5837 5834 5831 5829 5826 5825 5823 5822 5821 5820
5837 5841 5844 5846 5849 5850 5852 5854 5855 5856 5856 5857 5858 5858 5859 5859 5859 5859 5859 5860 5860 5860 5860 5860 5860 5859 5859 5858 5857 5856 5855 5853 5851 5849 5847 5845 5843 5840 5837 5834 5831 5828 5825 5823 5821 5819 5818 5816 5816
5836 5840 5843 5846 5848 5850 5853 5853 5854 5854 5855 5856 5857 5857 5857 5858 5858 5858 5858 5858 5858 5858 5858 5858 5858 5858 5858 5857 5856 5855 5853 5852 5850 5848 5846 5843 5841 5838 5835 5832 5829 5825 5822 5819 5817 5815 5814 5812 5811
5836 5839 5842 5844 5846 5849 5851 5851 5853 5853 5854 5855 5855 5856 5856 5856 5857 5857 5857 5857 5857 5857 5858 5858 5857 5857 5856 5855 5854 5853 5852 5850 5848 5846 5844 5841 5839 5836 5833 5830 5826 5823 5820 5817 5814 5812 5810 5808 5807
5836 5838 5840 5843 5845 5848 5850 5850 5851 5852 5853 5854 5854 5855 5855 5856 5855 5855 5855 5856 5856 5857 5857 5857 5856 5856 5855 5854 5853 5852 5850 5848 5847 5844 5842 5840 5837 5834 5831 5828 5825 5821 5818 5814 5811 5809 5807 5805 5803
5835 5838 5840 5843 5845 5847 5848 5849 5850 5851 5852 5853 5854 5854 5854 5854 5855 5854 5854 5855 5855 5856 5856 5856 5855 5855 5854 5853 5852 5850 5848 5847 5845 5843 5840 5838 5835 5832 5829 5826 5823 5819 5816 5812 5809 5806 5804 5802 5800
5835 5838 5840 5843 5845 5847 5848 5849 5850 5851 5852 5852 5853 5853 5853 5854 5854 5853 5854 5854 5855 5855 5855 5854 5854 5854 5853 5851 5850 5849 5847 5845 5843 5841 5839 5836 5833 5830 5827 5824 5821 5817 5814 5810 5807 5804 5801 5799 5797
5835 5838 5841 5844 5845 5846 5848 5849 5849 5850 5850 5851 5852 5852 5853 5853 5853 5853 5853 5854 5854 5853 5853 5853 5853 5852 5851 5850 5849 5847 5845 5843 5842 5839 5837 5834 5831 5828 5825 5822 5819 5815 5812 5808 5805 5802 5799 5796 5794
5836 5839 5841 5844 5845 5846 5848 5848 5848 5849 5850 5850 5851 5852 5852 5852 5852 5852 5852 5853 5853 5853 5852 5852 5852 5851 5850 5848 5847 5845 5843 5842 5840 5837 5835 5832 5829 5826 5823 5820 5817 5814 5810 5807 5803 5800 5797 5794 5792
5837 5840 5842 5844 5845 5847 5848 5848 5849 5848 5849 5850 5850 5851 5851 5851 5851 5851 5851 5851 5851 5851 5851 5851 5850 5849 5848 5847 5845 5843 5841 5839 5837 5835 5832 5830 5827 5824 5821 5818 5815 5812 5808 5805 5801 5798 5795 5792 5790
5838 5840 5842 5844 5845 5847 5848 5849 5849 5848 5849 5850 5850 5850 5850 5850 5850 5850 5850 5850 5851 5850 5850 5849 5849 5848 5846 5845 5843 5841 5839 5837 5835 5832 5830 5827 5825 5822 5819 5816 5813 5810 5807 5803 5800 5797 5794 5791 5788
5838 5841 5843 5845 5846 5847 5849 5849 5849 5848 5848 5849 5849 5849 5849 5849 5849 5849 5849 5849 5849 5849 5848 5848 5847 5846 5844 5843 5841 5839 5837 5835 5833 5830 5828 5825 5822 5820 5817 5814 5811 5808 5805 5802 5798 5795 5792 5790 5787
5839 5841 5843 5845 5847 5848 5849 5848 5848 5848 5848 5848 5848 5848 5848 5848 5848 5848 5848 5848 5848 5847 5846 5846 5845 5844 5842 5841 5839 5837 5835 5833 5830 5828 5825 5822 5819 5817 5814 5811 5808 5805 5802 5800 5797 5794 5791 5788 5786
5838 5840 5842 5845 5846 5848 5847 5847 5847 5847 5848 5847 5847 5847 5847 5847 5847 5847 5847 5846 5846 5845 5844 5843 5842 5841 5840 5838 5836 5834 5832 5830 5827 5825 5822 5819 5816 5814 5811 5808 5806 5803 5800 5797 5795 5792 5789 5787 5785
5840 5841 5843 5845 5847 5848 5847 5846 5847 5847 5847 5847 5846 5846 5846 5846 5846 5845 5845 5844 5844 5843 5842 5841 5840 5838 5837 5835 5833 5831 5829 5826 5824 5821 5819 5816 5813 5810 5808 5805 5802 5800 5797 5795 5792 5790 5788 5785 5783
5840 5841 5842 5844 5845 5847 5846 5847 5845 5846 5846 5846 5845 5845 5845 5844 5844 5844 5843 5842 5842 5841 5840 5838 5837 5835 5834 5832 5830 5827 5825 5822 5820 5817 5814 5812 5809 5806 5804 5801 5799 5796 5794 5792 5790 5788 5785 5783 5781
5839 5840 5841 5843 5844 5845 5844 5847 5844 5844 5844 5844 5844 5843 5843 5843 5842 5842 5841 5840 5839 5838 5837 5835 5834 5832 5830 5828 5826 5823 5820 5818 5815 5812 5809 5807 5804 5802 5799 5797 5794 5792 5790 5788 5786 5784 5783 5781 5779
Wind_Speed
6 5 3 2 2 1 2 2 2 2 1 1 0 0 1 1 2 3 4 4 4 5 5 6 6 6 7 7 8 8 8 8 8 8 9 9 10 11 11 12 12 12 12 13 13 14 14 14 13
8 7 6 4 3 1 0 1 1 1 1 0 0 0 1 1 2 3 4 5 6 6 6 6 7 7 8 8 8 8 8 8 9 9 9 10 11 12 12 12 12 12 13 13 14 14 15 15 15
10 8 8 6 4 3 2 1 1 0 1 1 1 1 1 2 3 4 4 5 5 6 6 7 7 8 8 8 8 8 8 9 10 10 11 11 12 12 12 12 13 13 14 14 15 15 15 15 15
11 10 9 8 6 4 3 2 1 1 2 2 2 2 3 3 4 4 5 5 5 5 6 7 7 7 7 8 8 8 8 9 10 11 11 12 12 12 13 13 14 14 15 15 15 16 15 15 15
13 12 10 9 7 6 5 3 3 3 3 3 2 3 3 3 4 4 5 5 5 5 6 7 7 7 7 7 8 8 9 10 11 11 12 12 12 12 13 13 14 15 15 15 15 15 16 16 16
13 13 10 9 8 7 6 5 4 3 3 3 3 3 4 5 5 4 5 5 5 6 6 7 6 6 7 7 8 9 10 10 11 12 12 12 13 13 14 15 15 15 15 15 16 15 15 16 16
14 13 12 11 9 8 7 6 5 5 4 5 4 4 4 5 5 5 6 6 6 6 6 6 5 6 7 7 8 9 10 11 11 12 13 13 14 14 15 15 16 16 16 16 15 15 15 16 16
16 15 12 12 10 8 7 7 6 6 6 6 6 5 5 5 5 6 6 6 7 7 6 5 5 6 7 8 9 10 10 11 12 12 13 13 14 14 15 16 15 15 15 16 15 15 15 15 16
17 16 14 13 11 9 8 7 7 7 7 7 7 6 6 6 7 7 7 6 7 7 6 5 6 6 7 8 10 10 11 11 12 13 13 14 14 15 15 16 16 16 16 16 16 16 16 16 16
18 16 15 13 11 10 9 8 8 7 8 8 7 7 7 7 7 7 7 6 6 6 6 5 6 7 8 9 10 10 11 12 12 13 13 14 15 15 16 17 17 17 17 17 17 17 17 17 17
19 17 15 13 11 10 9 9 8 8 8 8 7 7 8 8 8 7 7 6 6 6 6 6 7 8 9 9 10 11 11 12 13 14 14 15 16 16 17 17 17 18 18 18 18 17 17 17 18
20 18 14 11 11 11 9 9 9 8 9 8 7 7 7 8 7 7 7 7 6 6 6 6 7 8 8 9 10 11 12 13 14 14 15 15 16 17 17 18 18 18 18 18 18 17 17 17 18
19 18 15 13 12 11 10 9 8 8 8 8 8 7 7 8 8 7 7 7 6 6 6 6 7 7 8 9 11 12 13 13 14 15 15 16 17 18 19 19 19 19 19 19 18 18 17 17 17
18 17 15 13 11 10 10 10 9 8 8 8 8 7 7 7 7 7 7 7 7 6 6 6 7 8 8 10 11 12 13 13 15 15 16 17 18 18 19 20 20 20 20 19 18 18 18 18 18
17 15 14 12 10 9 9 9 9 8 8 8 8 7 7 7 8 8 8 7 7 6 6 6 7 8 9 10 11 12 13 14 15 15 16 17 18 19 19 20 20 20 20 19 18 18 18 18 18
15 13 12 12 11 10 9 8 8 8 6 6 7 7 6 6 7 7 7 7 7 6 6 6 7 8 9 10 11 12 13 14 15 16 16 17 18 19 20 20 20 20 20 19 18 17 17 17 16
14 12 11 11 10 8 8 8 7 7 6 6 6 6 6 6 7 6 6 6 6 6 6 7 7 8 9 10 11 13 14 15 16 16 17 18 19 20 20 20 20 20 20 19 18 17 17 16 15
13 12 10 10 8 7 7 8 6 5 5 5 5 6 6 6 6 5 5 5 5 6 7 7 7 8 10 11 12 14 14 15 16 17 18 18 19 20 20 20 20 20 20 19 18 18 17 16 15
13 12 10 8 6 6 6 6 5 4 5 5 5 5 6 6 6 5 3 4 5 6 7 7 8 9 10 12 13 15 15 16 16 17 18 19 19 20 20 20 21 20 20 19 19 18 17 16 15
13 12 10 8 6 5 5 5 5 5 5 5 5 5 5 5 5 4 4 5 5 5 6 7 9 10 11 13 14 15 16 16 16 17 18 19 19 20 20 21 21 21 20 20 19 18 17 16 15
12 11 10 7 6 4 4 4 5 5 5 4 4 4 4 4 4 3 4 5 5 5 6 7 8 10 12 13 14 15 16 16 17 17 18 19 20 20 20 21 21 21 20 20 19 18 17 16 14
11 10 8 6 6 4 3 4 4 4 3 3 3 4 3 3 4 4 4 4 4 5 7 8 10 11 12 14 15 15 16 16 17 17 18 19 19 20 20 21 21 21 21 20 19 18 17 16 14
11 9 9 7 6 4 3 5 4 4 4 3 4 4 3 3 4 4 4 5 5 6 8 9 11 12 14 15 15 16 17 17 18 18 19 19 19 20 20 20 21 21 21 20 20 19 18 16 14
11 10 9 9 9 7 5 6 4 5 5 4 4 4 3 3 3 4 4 5 6 7 9 10 11 13 14 15 16 17 17 18 18 19 19 19 19 20 20 20 20 20 20 20 20 18 17 15 13
13 12 10 8 6 6 6 7 7 7 6 5 5 4 4 4 4 4 5 6 7 8 10 11 12 13 14 15 16 17 17 18 19 19 20 20 20 20 20 20 20 20 20 20 19 18 17 15 13
13 12 10 7 5 4 6 7 7 7 7 6 6 5 4 4 4 5 6 7 8 9 10 11 13 13 14 15 16 17 18 19 19 20 20 20 21 20 20 20 20 20 20 19 19 18 17 15 13
11 9 8 7 6 6 7 7 7 7 7 6 6 5 5 5 5 6 7 8 9 10 11 12 13 14 15 16 17 18 19 20 20 21 21 21 21 21 21 21 21 20 20 19 18 18 17 15 13
9 9 9 9 8 8 8 8 6 7 6 6 6 6 6 6 6 7 8 9 10 11 12 13 14 15 16 17 18 20 21 21 22 22 22 22 22 22 21 22 21 21 20 19 18 18 17 16 14
8 9 11 12 10 8 9 10 8 7 7 7 6 6 7 7 7 8 8 10 10 12 13 14 15 17 18 19 20 21 22 22 22 23 23 23 23 23 23 22 22 21 20 19 19 18 17 16 15
8 7 8 9 9 9 9 9 10 9 9 8 8 8 8 8 8 9 10 11 12 13 15 16 17 19 20 21 22 23 23 24 24 24 24 24 24 24 24 23 22 22 21 20 19 19 18 16 15
Wind_Direction
235 227 206 182 166 106 34 37 45 51 74 98 79 103 159 239 266 264 264 269 277 283 291 298 304 302 299 298 302 305 306 304 306 308 305 301 300 298 295 294 292 289 285 280 280 277 273 267 262
228 225 219 211 197 194 222 344 29 55 51 144 246 249 266 307 292 284 277 277 278 279 285 292 301 303 302 301 304 305 308 305 306 307 305 303 303 300 297 297 293 288 287 286 281 279 272 267 263
222 225 216 210 207 216 215 237 217 157 346 333 294 283 302 301 304 296 292 292 286 283 288 292 299 302 301 304 306 307 310 312 310 308 308 308 305 302 299 297 294 291 288 286 284 279 275 267 264
217 216 218 214 216 219 214 205 337 307 294 307 318 306 303 295 296 296 300 304 301 298 297 298 301 301 302 306 309 312 318 319 317 314 313 311 309 306 302 298 296 294 291 289 285 280 275 271 266
215 215 217 217 221 223 230 244 275 290 282 283 300 303 295 289 299 305 310 310 307 304 306 310 308 304 304 307 312 316 319 320 318 317 317 317 315 312 308 305 301 298 294 290 286 280 275 272 265
212 213 213 212 215 224 229 244 259 274 273 276 286 296 298 305 302 303 312 312 311 308 309 313 311 311 313 312 312 315 318 318 319 319 319 319 317 315 312 310 306 301 298 294 289 282 277 272 266
210 211 213 213 219 229 233 240 258 271 276 278 280 288 297 302 304 308 315 314 312 312 310 306 309 316 318 317 317 320 321 321 321 320 320 319 319 318 316 313 310 306 302 298 293 286 279 275 270
213 217 214 216 223 227 231 241 256 264 270 275 281 288 292 296 298 303 308 311 313 312 309 306 314 325 328 329 329 326 326 326 326 325 324 322 321 320 319 316 313 309 304 302 297 290 282 277 273
212 218 217 218 220 225 235 247 252 265 267 270 275 280 285 288 290 295 302 307 308 307 302 306 315 324 329 328 329 330 330 330 330 329 327 325 324 322 319 317 314 310 306 302 297 291 285 280 275
211 214 218 220 223 228 238 248 257 270 268 269 271 274 280 284 289 295 296 299 300 305 302 303 311 317 322 327 331 332 332 333 332 329 327 326 325 324 321 318 315 311 308 304 299 293 287 280 276
211 214 213 216 223 232 241 249 259 272 272 266 269 275 279 282 287 287 289 288 292 297 298 303 311 318 324 329 333 334 335 335 334 331 329 327 326 326 324 321 318 314 310 306 302 296 290 282 276
211 212 211 217 226 233 240 250 257 264 265 266 272 284 283 283 286 288 288 291 294 294 297 306 315 322 327 332 336 336 337 336 335 333 331 330 329 328 326 325 321 316 312 308 304 299 294 286 279
209 213 214 219 229 237 244 251 256 261 265 265 271 278 282 283 287 294 304 300 294 297 301 310 317 323 329 334 336 335 334 336 336 335 335 333 331 330 327 326 324 320 315 311 307 302 296 291 285
205 211 214 220 229 238 247 252 252 259 266 266 269 275 283 286 289 293 297 305 300 299 302 309 317 321 325 330 333 334 333 335 336 336 336 334 332 331 330 328 326 322 319 315 310 304 299 294 287
204 207 214 221 229 238 249 253 255 259 267 269 270 273 280 288 292 294 297 302 302 303 304 309 319 322 322 326 330 332 333 334 335 335 335 335 335 334 333 332 329 326 323 320 314 308 303 297 290
201 205 213 219 226 237 245 254 261 266 266 273 275 275 278 289 292 293 297 301 303 307 312 317 323 325 326 329 331 331 333 334 335 334 334 335 336 337 336 335 333 330 328 325 321 315 308 301 293
196 202 213 218 221 231 246 260 262 268 275 275 278 277 281 292 295 294 295 298 302 308 315 318 323 327 330 333 333 333 333 334 334 334 335 335 336 337 337 337 336 334 332 329 325 320 314 305 297
189 197 210 211 211 223 239 250 258 272 283 281 283 287 287 292 299 294 287 295 305 312 317 319 325 331 334 335 335 334 333 333 333 333 334 336 337 338 338 338 338 337 335 331 327 324 319 311 301
183 192 204 206 206 215 234 253 268 284 287 285 287 288 289 291 300 294 283 294 307 311 317 322 323 327 331 332 333 333 333 332 332 332 334 336 337 337 338 338 339 339 337 334 330 326 323 316 305
184 185 190 198 207 219 233 259 266 277 273 273 279 280 274 286 292 285 286 296 303 311 321 327 327 327 329 332 333 334 334 333 333 334 335 335 336 336 337 338 338 338 338 337 334 329 325 318 309
174 179 186 187 188 210 236 251 265 273 277 269 267 265 268 277 286 285 292 299 306 313 324 329 332 333 335 333 332 332 332 332 333 334 336 336 337 336 336 337 338 338 338 338 336 332 328 322 313
176 180 182 178 176 193 241 252 282 292 274 262 267 273 275 276 283 290 296 298 307 314 321 326 328 329 330 332 333 332 331 331 330 332 334 335 336 336 336 337 338 338 338 338 336 334 330 325 317
175 173 173 164 163 179 231 269 273 282 278 277 281 281 290 290 287 295 301 305 308 311 316 320 323 325 328 330 332 332 331 331 331 331 331 333 334 335 335 336 337 338 338 338 338 336 334 328 321
164 160 163 158 161 175 210 258 258 264 269 273 274 280 289 293 293 295 301 306 306 308 314 319 321 324 327 329 330 330 331 332 332 333 333 332 332 333 334 335 335 336 337 338 339 337 336 332 326
164 154 151 154 174 184 217 248 252 259 270 276 276 282 293 302 302 302 304 307 310 311 315 319 322 324 326 327 329 329 330 331 332 332 332 331 331 331 332 333 334 334 335 336 338 338 337 335 330
159 159 157 170 192 215 235 242 258 266 268 267 271 279 288 295 298 298 303 308 310 311 315 318 320 322 324 326 327 327 327 328 328 329 329 330 330 331 332 332 332 333 333 334 336 337 337 335 332
168 169 159 172 180 214 240 250 267 263 263 266 272 279 289 295 300 301 302 306 309 313 315 317 318 319 321 323 324 326 326 325 325 325 326 326 327 327 328 329 330 331 331 331 333 334 334 333 331
184 179 175 180 183 208 256 277 272 261 266 270 272 279 287 294 301 305 306 308 310 312 314 315 316 317 319 320 322 323 324 323 322 322 322 322 323 323 323 325 325 326 328 328 328 330 329 327 326
185 183 184 182 184 201 236 258 268 275 273 277 280 284 288 292 297 301 304 307 308 309 312 313 314 314 315 317 318 319 320 320 320 320 320 320 320 320 320 321 322 322 322 322 323 324 324 323 319
193 185 186 191 198 210 238 258 272 279 280 280 282 284 287 292 296 300 302 304 306 307 308 310 312 313 313 314 315 316 318 318 319 318 318 317 317 317 318 318 318 318 317 317 318 319 320 319 315